Lander, WY

1:07 PM MDT on May 22, 2017 (GMT -0600)
Hunt

Weather History for KLND - June, 2012

Change the Weather History Date:

Friday, June 22, 2012

  Actual Average Record
Temperature  
Mean Temperature 74 °F 65 °F  
Max Temperature 94 °F 80 °F 97 °F (1954)
Min Temperature 53 °F 50 °F 34 °F (1914)
Degree Days  
Heating Degree Days 0 3  
Month to date heating degree days 45 111  
Since 1 June heating degree days 45 111  
Since 1 July heating degree days 6807 7733  
Cooling Degree Days 9 3  
Month to date cooling degree days 58 36  
Year to date cooling degree days 67 41  
Since 1 June cooling degree days 58 36  
Growing Degree Days 24 (Base 50)    
Moisture  
Dew Point 25 °F    
Average Humidity 25    
Maximum Humidity 41    
Minimum Humidity 8    
Precipitation  
Precipitation 0.00 in 0.04 in 1.09 in (1948)
Month to date precipitation 0.04 1.08  
Year to date precipitation 4.57 7.30  
Snow  
Snow 0.00 in 0.00 in - ()
Month to date snowfall 0.0 0.1  
Since 1 June snowfall 0.0 0.1  
Since 1 July snowfall 63.9 91.4  
Snow Depth 0.00 in    
Sea Level Pressure  
Sea Level Pressure 29.64 in    
Wind  
Wind Speed 9 mph (WSW)    
Max Wind Speed 22 mph    
Max Gust Speed 41 mph    
Visibility 10 miles    
Events      
T = Trace of Precipitation, MM = Missing Value Source: NWS Daily Summary

Daily Weather History Graph

Daily Weather History Graph

Search for Another Location

Airport or City:

Trip Planner

Search our weather history database for the weather conditions in past years. The results will help you decide how hot, cold, wet, or windy it might be!

Date:

Astronomy

Jun. 22, 2012 Rise Set
Actual Time 5:36 AM MDT 8:57 PM MDT
Civil Twilight 5:01 AM MDT 9:32 PM MDT
Nautical Twilight 4:15 AM MDT 10:18 PM MDT
Astronomical Twilight 3:19 AM MDT 11:14 PM MDT
Moon 8:43 AM MDT 10:50 PM MDT
Length of Visible Light 16h 30m
Length of Day
15h 20m
Waxing Crescent, 10% of the Moon is Illuminated
Jun 22
Waxing Crescent
Jun 26
First Quarter
Jul 3
Full
Jul 10
Last Quarter
Jul 18
New

Hourly Weather History & Observations

Time (MDT) Temp. Dew Point Humidity Pressure Visibility Wind Dir Wind Speed Gust Speed Precip Events Conditions
12:53 AM 64.0 °F 26.1 °F 24% 29.81 in 10.0 mi WSW 13.8 mph - N/A   Clear
1:53 AM 64.9 °F 24.1 °F 21% 29.77 in 10.0 mi WSW 10.4 mph - N/A   Clear
2:53 AM 62.1 °F 23.0 °F 22% 29.76 in 10.0 mi Variable 4.6 mph - N/A   Clear
3:53 AM 62.1 °F 23.0 °F 22% 29.75 in 10.0 mi West 8.1 mph - N/A   Clear
4:53 AM 61.0 °F 23.0 °F 23% 29.73 in 10.0 mi WSW 11.5 mph - N/A   Clear
5:53 AM 57.0 °F 25.0 °F 29% 29.75 in 10.0 mi WSW 9.2 mph - N/A   Clear
6:53 AM 54.0 °F 30.9 °F 41% 29.75 in 10.0 mi WSW 6.9 mph - N/A   Clear
7:53 AM 61.0 °F 30.0 °F 31% 29.73 in 10.0 mi Calm Calm - N/A   Clear
8:53 AM 68.0 °F 28.0 °F 22% 29.70 in 10.0 mi ESE 3.5 mph - N/A   Clear
9:53 AM 72.0 °F 27.0 °F 19% 29.70 in 10.0 mi NNE 3.5 mph - N/A   Clear
10:53 AM 75.9 °F 30.9 °F 19% 29.66 in 10.0 mi Variable 5.8 mph - N/A   Clear
11:53 AM 77.0 °F 30.0 °F 18% 29.65 in 10.0 mi Calm Calm - N/A   Clear
12:53 PM 81.0 °F 30.9 °F 16% 29.61 in 10.0 mi Variable 3.5 mph - N/A   Clear
1:53 PM 87.1 °F 33.1 °F 15% 29.56 in 10.0 mi East 5.8 mph - N/A   Clear
2:53 PM 89.1 °F 25.0 °F 10% 29.52 in 10.0 mi Variable 3.5 mph - N/A   Clear
3:20 PM 93.2 °F 19.4 °F 7% 29.75 in 10.0 mi SW 18.4 mph 34.5 mph N/A   Clear
3:53 PM 93.0 °F 24.1 °F 8% 29.50 in 10.0 mi SW 21.9 mph 36.8 mph N/A   Clear
4:53 PM 91.0 °F 24.1 °F 9% 29.50 in 10.0 mi SW 13.8 mph 27.6 mph N/A   Clear
5:53 PM 89.1 °F 23.0 °F 9% 29.50 in 10.0 mi SW 20.7 mph 29.9 mph N/A   Clear
6:53 PM 90.0 °F 19.9 °F 8% 29.51 in 10.0 mi West 19.6 mph 24.2 mph N/A   Clear
7:53 PM 87.1 °F 21.0 °F 9% 29.51 in 10.0 mi NW 5.8 mph - N/A   Clear
8:53 PM 80.1 °F 21.0 °F 11% 29.53 in 10.0 mi SW 8.1 mph - N/A   Clear
9:53 PM 75.9 °F 21.0 °F 13% 29.55 in 10.0 mi SW 13.8 mph - N/A   Clear
10:53 PM 73.9 °F 23.0 °F 15% 29.57 in 10.0 mi West 9.2 mph - N/A   Clear
11:53 PM 71.1 °F 24.1 °F 17% 29.58 in 10.0 mi West 10.4 mph - N/A   Clear